Terminal Aerodrome Forecast
Issued by NWS

Home | Current Version | Previous Version | Text Only | Print | Product List | Glossary On
Versions: 1 2 3 4 5 6 7 8 9 10 11 12 13 14 15 16 17 18 19 20 21 22 23 24 25 26 27 28 29 30 31 32 33 34 35 36 37 38 39 40 41 42 43 44 45 46 47 48 49 50
000
FTUS42 KRAH 051138
TAFRWI
TAF
KRWI 051138Z 0512/0612 04005KT 3SM BR OVC005
      TEMPO 0512/0516 BKN010
     FM051600 05011KT P6SM BKN035
      TEMPO 0518/0522 VRB15G25KT 3SM SHRA BKN025=

USA.gov is the U.S. government's official web portal to all federal, state and local government web resources and services.